TimeMST,TemperatureF,Dew PointF,Humidity,Sea Level PressureIn,VisibilityMPH,Wind Direction,Wind SpeedMPH,Gust SpeedMPH,PrecipitationIn,Events,Conditions,WindDirDegrees,DateUTC
12:53 AM,23.0,7.0,50,30.02,10.0,Calm,Calm,-,N/A,,Overcast,0,2013-03-04 07:53:00
1:53 AM,19.9,14.0,78,30.08,10.0,NE,19.6,-,N/A,,Overcast,50,2013-03-04 08:53:00
2:53 AM,19.0,14.0,81,30.13,10.0,NE,18.4,25.3,N/A,,Overcast,50,2013-03-04 09:53:00
3:39 AM,19.4,14.0,80,30.03,4.0,NNE,13.8,-,0.00,Snow,Light Snow,30,2013-03-04 10:39:00
3:53 AM,19.0,14.0,81,30.15,4.0,NNE,12.7,-,0.00,Snow,Light Snow,20,2013-03-04 10:53:00
4:19 AM,19.4,10.4,68,30.05,10.0,NNE,17.3,-,0.00,,Overcast,20,2013-03-04 11:19:00
4:53 AM,19.0,10.0,68,30.19,10.0,NNE,16.1,-,0.00,,Overcast,20,2013-03-04 11:53:00
5:53 AM,18.0,9.0,68,30.23,10.0,NNE,13.8,-,N/A,,Mostly Cloudy,30,2013-03-04 12:53:00
6:53 AM,18.0,7.0,62,30.27,10.0,NNE,15.0,-,N/A,,Overcast,30,2013-03-04 13:53:00
7:53 AM,18.0,6.1,60,30.29,10.0,NNE,18.4,-,N/A,,Mostly Cloudy,30,2013-03-04 14:53:00
8:53 AM,21.0,5.0,50,30.30,10.0,NNE,17.3,-,N/A,,Scattered Clouds,20,2013-03-04 15:53:00
9:53 AM,23.0,5.0,46,30.32,10.0,NNE,18.4,-,N/A,,Clear,30,2013-03-04 16:53:00
10:53 AM,25.0,5.0,43,30.33,10.0,North,5.8,-,N/A,,Clear,360,2013-03-04 17:53:00
11:53 AM,24.1,5.0,44,30.32,10.0,ESE,4.6,-,N/A,,Overcast,120,2013-03-04 18:53:00
12:53 PM,27.0,5.0,39,30.32,10.0,North,5.8,-,N/A,,Mostly Cloudy,10,2013-03-04 19:53:00
1:53 PM,28.9,5.0,36,30.32,10.0,East,5.8,-,N/A,,Mostly Cloudy,80,2013-03-04 20:53:00
2:53 PM,28.9,5.0,36,30.31,10.0,East,6.9,-,N/A,,Clear,80,2013-03-04 21:53:00
3:53 PM,30.9,5.0,33,30.29,10.0,NE,4.6,-,N/A,,Clear,40,2013-03-04 22:53:00
4:53 PM,30.0,3.9,33,30.28,10.0,ESE,3.5,-,N/A,,Clear,120,2013-03-04 23:53:00
5:53 PM,28.9,3.9,35,30.28,10.0,ENE,3.5,-,N/A,,Clear,60,2013-03-05 00:53:00
6:53 PM,19.9,6.1,55,30.33,10.0,ENE,8.1,-,N/A,,Clear,70,2013-03-05 01:53:00
7:53 PM,19.9,7.0,57,30.34,10.0,SE,4.6,-,N/A,,Clear,130,2013-03-05 02:53:00
8:53 PM,18.0,6.1,60,30.32,10.0,WNW,3.5,-,N/A,,Clear,290,2013-03-05 03:53:00
9:53 PM,18.0,5.0,57,30.31,10.0,Calm,Calm,-,N/A,,Clear,0,2013-03-05 04:53:00
10:53 PM,18.0,7.0,62,30.30,10.0,SSE,5.8,-,N/A,,Clear,160,2013-03-05 05:53:00